DMSP 5D-2 F13 DEB

Satellite information

Favourite Embed

Satellite Type and Status

DEBRISIN ORBIT

Key statistics

Satellite DMSP 5D-2 F13 DEB at a glance.

Uptime

11001

Days in orbit

Revolutions

≈ 14.4

Per day

Orbit

SSO

Sun Synchronous Orbit

Inclination

99.0

Latest

Satellite identification and parameters

Extended collection of information and parameters for DMSP 5D-2 F13 DEB.

Object identification

Identified? True

Debris? True

Object name: DMSP 5D-2 F13 DEB

International designator: 1995-015BE

Object number (NORAD): 40462

Object ID (CCSDS): 40462

Country: UNITED STATES OF AMERICA (US)

Current information (Y/N): Y

RCS size: SMALL

Orbital parameters

Period: 100.17 minutes

Inclination: 98.9545 deg

SMA: 7144.73 km

Apoapsis: 796.254 km

Periapsis: 736.937 km

RAAN: 145.2172 deg

Eccentricy: 0.0041511

Argument of periapsis: 138.4484 deg

Mean anomaly: 221.9869 deg

Mean motion: 14.37553532 rev/day

Mean motion (dot): 0.00016937 rev/day2

B* drag term: 0.0055963 1/REarth

Two-line elements (TLE)

Creation date: May 3, 2025, 5:28 p.m.

Reference frame: TEME

Reference center: EARTH

Epoch: May 3, 2025, 12:28 p.m. UTC

TLE line 0: 0 DMSP 5D-2 F13 DEB

TLE line 1: 1 40462U 95015BE 25123.51962198 .00016937 00000-0 55963-2 0 9996

TLE line 2: 2 40462 98.9545 145.2172 0041511 138.4484 221.9869 14.37553532522749

Live tracking on map

Real-time ground track for satellite DMSP 5D-2 F13 DEB.

In-orbit conjunctions

A list of the most updated potential collisions computed for object DMSP 5D-2 F13 DEB.

Target Orbit TCA Probability of collision Miss distance Type
COSMOS 1023 LEO 2025-02-17 10:06:04 0.0001959984 358.0 (m) PAYLOAD
SL-8 R/B LEO 2024-12-26 18:03:48 0.0001367149 810.0 (m) ROCKET BODY
SOICAL (CONE) LEO 2024-07-26 03:13:58 0.0002736332 465.0 (m) PAYLOAD
FENGYUN 1C DEB SSO 2024-07-07 12:01:29 0.0001405687 262.0 (m) DEBRIS

Associated space launch

Military meteorological satellite

DMSP 5D-2 F13 DEB was lifted into orbit during the mission ‘Atlas E | DMSP-5D2 F13’, on board a Atlas E space rocket.

The launch took place on March 24, 1995, 2:05 p.m. from Space Launch Complex 3W.

For more information about the launch, click the button.

Launch to space Atlas E | DMSP-5D2 F13
Atlas E | DMSP-5D2 F13

Agency: N/A

Status: Launch Successful

Launch date: March 24, 1995, 2:05 p.m. UTC

Rocket: Atlas E

Launch pad: Space Launch Complex 3W

Location: Vandenberg SFB, CA, USA

...

Latest news about this satellite

There are no fresh news available about this satellite. Check back as we update our databases every day.


Newsletter sign-up

Weekly statistics, charts and insights to help you stay on top of the space industry.